BMCB-38 Weather Reports


time (UTC)temp
F
wind
direction
speed
knots
gust
knots
rain 1hr
in
rain 24hr
in
rain mn
in
humidity
%
barometer
mb
20260505191038 49 0 0.0 0.0 0.05 0.13 0.13 10 1008.6
20260505185038 49 0 0.0 0.0 0.05 0.13 0.13 10 1008.6
20260505184039 49 0 0.0 0.0 0.05 0.12 0.12 10 1008.5
20260505183025 49 0 0.0 0.0 0.05 0.11 0.11 10 1008.5
20260505182040 49 0 0.0 0.0 0.05 0.10 0.10 10 1008.5
20260505180035 50 0 0.0 0.0 0.04 0.09 0.09 10 1008.5
20260505175038 50 0 0.0 0.0 0.04 0.09 0.09 10 1008.5
20260505174038 50 0 0.0 0.0 0.03 0.08 0.08 10 1008.6
20260505173037 50 0 0.0 0.0 0.02 0.07 0.07 10 1008.6
20260505172033 50 0 0.0 0.0 0.02 0.06 0.06 10 1008.6
20260505171035 50 0 0.0 0.0 0.01 0.06 0.06 10 1008.6
20260505165037 50 0 0.0 0.0 0.00 0.05 0.05 10 1008.7
20260505161038 50 0 0.0 0.0 0.00 0.06 0.05 10 1008.7
20260505153034 50 0 0.0 0.0 0.00 0.06 0.05 10 1008.9
20260505152033 50 0 0.0 0.0 0.00 0.06 0.05 10 1008.9
20260505151037 50 0 0.0 0.0 0.00 0.06 0.05 10 1008.9
20260505125038 51 0 0.0 0.0 0.00 0.09 0.05 10 1009.7
20260505124036 51 0 0.0 0.0 0.00 0.09 0.05 10 1009.7
20260505123036 51 0 0.0 0.0 0.00 0.09 0.05 10 1009.6
20260505122039 51 0 0.0 0.0 0.00 0.09 0.05 10 1009.5
20260505121036 51 0 0.0 0.0 0.00 0.09 0.05 10 1009.6
20260505120036 51 0 0.0 0.0 0.00 0.09 0.05 10 1009.6
20260505115038 51 0 0.0 0.0 0.00 0.09 0.05 10 1009.6
20260505114039 51 0 0.0 0.0 0.00 0.09 0.05 10 1009.7
20260505113037 51 0 0.0 0.0 0.00 0.09 0.05 10 1009.7
20260505112038 51 0 0.0 0.0 0.00 0.09 0.05 10 1009.8
20260505111038 51 0 0.0 0.0 0.01 0.09 0.05 10 1009.9
20260505102033 51 0 0.0 0.0 0.02 0.09 0.05 10 1010.0
20260505101039 51 0 0.0 0.0 0.02 0.09 0.05 10 1010.0
20260505095038 51 0 0.0 0.0 0.01 0.08 0.04 10 1010.1
20260505094037 51 0 0.0 0.0 0.01 0.08 0.04 10 1010.1
20260505093039 51 0 0.0 0.0 0.00 0.07 0.03 10 1010.0
20260505092038 51 0 0.0 0.0 0.00 0.07 0.03 10 1010.0
20260505091038 51 0 0.0 0.0 0.00 0.07 0.03 10 1010.1
20260505085038 52 0 0.0 0.0 0.00 0.07 0.03 10 1010.0
20260505084036 52 0 0.0 0.0 0.00 0.07 0.03 10 1010.0
20260505082037 52 0 0.0 0.0 0.00 0.07 0.03 10 1010.2
20260505081036 52 0 0.0 0.0 0.00 0.07 0.03 10 1010.1
20260505075032 52 0 0.0 0.0 0.00 0.07 0.03 10 1010.2
20260505074036 52 0 0.0 0.0 0.00 0.07 0.03 10 1010.2
20260505072033 52 0 0.0 0.0 0.00 0.07 0.03 10 1010.1
20260505071028 53 0 0.0 0.0 0.00 0.07 0.03 10 1010.1
20260505070024 53 0 0.0 0.0 0.00 0.07 0.03 10 1010.2
20260505065036 53 0 0.0 0.0 0.00 0.07 0.03 10 1010.2
20260505064028 53 0 0.0 0.0 0.00 0.07 0.03 10 1010.2
20260505063033 53 0 0.0 0.0 0.00 0.07 0.03 10 1010.2
20260505060034 53 0 0.0 0.0 0.01 0.07 0.03 10 1010.2
20260505055037 53 0 0.0 0.0 0.02 0.07 0.03 10 1010.3
20260505054037 53 0 0.0 0.0 0.02 0.07 0.03 10 1010.3
20260505051037 52 0 0.0 0.0 0.02 0.07 0.03 10 1010.3
20260505041020 52 0 0.0 0.0 0.00 0.05 0.01 10 1010.4
20260505034026 52 0 0.0 0.0 0.01 0.05 0.01 10 1010.5
20260505033036 51 0 0.0 0.0 0.01 0.05 0.01 10 1010.5
20260505032023 51 0 0.0 0.0 0.01 0.05 0.01 10 1010.6
20260505031022 51 0 0.0 0.0 0.01 0.05 0.01 10 1010.7
20260505030035 51 0 0.0 0.0 0.01 0.05 0.01 10 1010.8
20260505025021 52 0 0.0 0.0 0.01 0.05 0.01 10 1010.9
20260505024036 51 0 0.0 0.0 0.01 0.05 0.01 10 1010.9
20260505022037 51 0 0.0 0.0 0.00 0.04 0.00 10 1011.0
20260505021038 51 0 0.0 0.0 0.00 0.04 0.00 10 1011.0
20260505020039 51 0 0.0 0.0 0.00 0.04 0.00 10 1010.9
20260505015021 52 0 0.0 0.0 0.00 0.04 0.00 10 1010.9
20260505014020 52 0 0.0 0.0 0.00 0.04 0.00 10 1010.9
20260505013034 52 0 0.0 0.0 0.00 0.04 0.00 10 1010.9
20260505012022 52 0 0.0 0.0 0.00 0.04 0.00 10 1011.0
20260505011036 52 0 0.0 0.0 0.00 0.04 0.00 10 1011.0
20260505010021 52 0 0.0 0.0 0.00 0.04 0.00 10 1011.1
20260505004022 52 0 0.0 0.0 0.00 0.04 0.00 10 1011.3
20260505003037 52 0 0.0 0.0 0.00 0.04 0.00 10 1011.4
20260505002035 52 0 0.0 0.0 0.00 0.04 0.00 10 1011.5
20260505000037 53 0 0.0 0.0 0.00 0.04 0.00 10 1011.6
20260504235038 53 0 0.0 0.0 0.00 0.04 0.00 10 1011.7
20260504234038 53 0 0.0 0.0 0.00 0.04 0.00 10 1011.7
20260504232032 53 0 0.0 0.0 0.00 0.04 0.00 10 1011.8
20260504231039 53 0 0.0 0.0 0.00 0.04 0.00 10 1012.0
20260504230033 54 0 0.0 0.0 0.00 0.04 0.00 10 1011.9
20260504225037 54 0 0.0 0.0 0.00 0.04 0.00 10 1012.0
20260504224032 54 0 0.0 0.0 0.00 0.04 0.00 10 1012.2
20260504223037 54 0 0.0 0.0 0.00 0.04 0.00 10 1012.2
20260504222039 54 0 0.0 0.0 0.00 0.04 0.00 10 1012.3
20260504221031 54 0 0.0 0.0 0.00 0.04 0.00 99 1012.4
20260504220037 54 0 0.0 0.0 0.00 0.04 0.00 99 1012.5
20260504215038 54 0 0.0 0.0 0.00 0.04 0.04 98 1012.5
20260504214040 54 0 0.0 0.0 0.00 0.04 0.04 98 1012.6
20260504213037 54 0 0.0 0.0 0.00 0.04 0.04 98 1012.6
20260504212038 54 0 0.0 0.0 0.00 0.04 0.04 98 1012.7
20260504211037 54 0 0.0 0.0 0.00 0.04 0.04 98 1012.7
20260504210038 54 0 0.0 0.0 0.00 0.04 0.04 98 1012.8
20260504205038 54 0 0.0 0.0 0.00 0.04 0.04 99 1012.8
20260504204037 55 0 0.0 0.0 0.00 0.04 0.04 98 1012.8
20260504203039 55 0 0.0 0.0 0.00 0.04 0.04 98 1012.8
20260504201040 55 0 0.0 0.0 0.00 0.04 0.04 96 1012.9
20260504200040 55 0 0.0 0.0 0.00 0.04 0.04 96 1012.7
20260504195034 55 0 0.0 0.0 0.00 0.04 0.04 96 1012.7